Time,TemperatureF,DewpointF,PressureIn,WindDirection,WindDirectionDegrees,WindSpeedMPH,WindSpeedGustMPH,Humidity,HourlyPrecipIn,Conditions,Clouds,dailyrainin,SoftwareType,DateUTC
2013-03-20 00:09:00,18.9,8.8,29.98,NW,310,11.0,17.0,64,0.00,,---,0.00,VWS V14.01,2013-03-20 05:09:00,
2013-03-20 00:39:00,18.1,8.0,29.98,NW,325,10.0,13.0,64,0.00,,---,0.00,VWS V14.01,2013-03-20 05:39:00,
2013-03-20 01:09:00,17.6,7.5,29.98,NNW,337,7.0,16.0,64,0.00,,---,0.00,VWS V14.01,2013-03-20 06:09:00,
2013-03-20 01:39:00,17.1,7.0,29.98,NW,322,6.0,15.0,64,0.00,,---,0.00,VWS V14.01,2013-03-20 06:39:00,
2013-03-20 02:09:00,16.5,6.5,29.97,NW,325,6.0,18.0,64,0.00,,---,0.00,VWS V14.01,2013-03-20 07:09:00,
2013-03-20 02:39:00,15.8,6.1,29.97,NW,312,7.0,21.0,65,0.00,,---,0.00,VWS V14.01,2013-03-20 07:39:00,
2013-03-20 03:09:00,14.9,5.3,29.97,NNW,343,10.0,19.0,65,0.00,,---,0.00,VWS V14.01,2013-03-20 08:09:00,
2013-03-20 03:39:00,14.1,4.2,29.97,NNW,327,12.0,18.0,64,0.00,,---,0.00,VWS V14.01,2013-03-20 08:39:00,
2013-03-20 04:09:00,13.6,3.7,29.97,NW,321,14.0,19.0,64,0.00,,---,0.00,VWS V14.01,2013-03-20 09:09:00,
2013-03-20 04:39:00,12.8,2.9,29.97,North,355,15.0,20.0,64,0.00,,---,0.00,VWS V14.01,2013-03-20 09:39:00,
2013-03-20 05:09:00,12.1,2.3,29.97,North,10,9.0,22.0,64,0.00,,---,0.00,VWS V14.01,2013-03-20 10:09:00,
2013-03-20 05:39:00,11.5,1.7,29.98,NNW,336,8.0,20.0,64,0.00,,---,0.00,VWS V14.01,2013-03-20 10:39:00,
2013-03-20 06:09:00,10.8,1.0,29.98,NW,317,16.0,22.0,64,0.00,,---,0.00,VWS V14.01,2013-03-20 11:09:00,
2013-03-20 06:39:00,10.1,0.7,29.99,NW,317,13.0,19.0,65,0.00,,---,0.00,VWS V14.01,2013-03-20 11:39:00,
2013-03-20 07:09:00,9.6,0.2,30.00,NW,306,4.0,22.0,65,0.00,,---,0.00,VWS V14.01,2013-03-20 12:09:00,
2013-03-20 07:39:00,9.4,0.0,30.01,WNW,294,6.0,21.0,65,0.00,,---,0.00,VWS V14.01,2013-03-20 12:39:00,
2013-03-20 08:09:00,9.5,-0.5,30.01,NW,317,5.0,22.0,63,0.00,,---,0.00,VWS V14.01,2013-03-20 13:09:00,
2013-03-20 08:39:00,9.8,-0.9,30.01,NNW,328,17.0,27.0,61,0.00,,---,0.00,VWS V14.01,2013-03-20 13:39:00,
2013-03-20 09:09:00,10.4,0.0,30.01,NNW,346,14.0,21.0,62,0.00,,---,0.00,VWS V14.01,2013-03-20 14:09:00,
2013-03-20 09:39:00,10.8,0.0,30.01,NNW,333,14.0,21.0,61,0.00,,---,0.00,VWS V14.01,2013-03-20 14:39:00,
2013-03-20 10:09:00,11.2,0.0,30.00,NNW,344,12.0,23.0,60,0.00,,---,0.00,VWS V14.01,2013-03-20 15:09:00,
2013-03-20 10:39:00,11.7,0.5,30.00,NW,308,11.0,23.0,60,0.00,,---,0.00,VWS V14.01,2013-03-20 15:39:00,
2013-03-20 11:09:00,12.3,0.7,30.00,NNW,329,11.0,22.0,59,0.00,,---,0.00,VWS V14.01,2013-03-20 16:09:00,
2013-03-20 11:39:00,13.0,1.0,30.00,NNW,339,15.0,26.0,58,0.00,,---,0.00,VWS V14.01,2013-03-20 16:39:00,
2013-03-20 12:09:00,14.2,2.9,30.00,NW,319,10.0,21.0,60,0.00,,---,0.00,VWS V14.01,2013-03-20 17:09:00,
2013-03-20 12:39:00,15.2,3.5,29.99,WNW,296,6.0,22.0,59,0.00,,---,0.00,VWS V14.01,2013-03-20 17:39:00,
2013-03-20 13:09:00,15.5,4.1,29.99,WNW,289,5.0,19.0,60,0.00,,---,0.00,VWS V14.01,2013-03-20 18:09:00,
2013-03-20 13:39:00,16.4,4.2,29.99,NW,311,12.0,19.0,58,0.00,,---,0.00,VWS V14.01,2013-03-20 18:39:00,
2013-03-20 14:09:00,16.0,3.5,29.98,NNW,338,9.0,24.0,57,0.00,,---,0.00,VWS V14.01,2013-03-20 19:09:00,
2013-03-20 14:39:00,16.2,4.0,29.97,NNW,331,11.0,22.0,58,0.00,,---,0.00,VWS V14.01,2013-03-20 19:39:00,
2013-03-20 15:09:00,17.7,4.7,29.97,NW,315,6.0,19.0,56,0.00,,---,0.00,VWS V14.01,2013-03-20 20:09:00,
2013-03-20 15:39:00,17.5,5.3,29.97,NW,308,12.0,18.0,58,0.00,,---,0.00,VWS V14.01,2013-03-20 20:39:00,
2013-03-20 16:09:00,17.3,5.4,29.97,NNW,348,11.0,20.0,59,0.00,,---,0.00,VWS V14.01,2013-03-20 21:09:00,
2013-03-20 16:39:00,17.0,4.8,29.98,NNW,342,11.0,20.0,58,0.00,,---,0.00,VWS V14.01,2013-03-20 21:39:00,
2013-03-20 17:09:00,16.9,4.3,29.98,NNW,335,18.0,22.0,57,0.00,,---,0.00,VWS V14.01,2013-03-20 22:09:00,
2013-03-20 17:39:00,16.7,4.9,29.98,NW,324,13.0,22.0,59,0.00,,---,0.00,VWS V14.01,2013-03-20 22:39:00,
2013-03-20 18:09:00,15.9,7.2,29.99,NNW,346,6.0,20.0,68,0.00,,---,0.00,VWS V14.01,2013-03-20 23:09:00,
2013-03-20 18:39:00,16.1,6.1,29.99,NNW,327,6.0,15.0,64,0.00,,---,0.00,VWS V14.01,2013-03-20 23:39:00,
2013-03-20 19:09:00,16.2,4.4,29.99,NNW,333,7.0,20.0,59,0.00,,---,0.00,VWS V14.01,2013-03-21 00:09:00,
2013-03-20 19:39:00,15.5,4.8,29.99,NNW,342,1.0,11.0,62,0.00,,---,0.00,VWS V14.01,2013-03-21 00:39:00,
2013-03-20 20:09:00,15.1,4.1,30.00,NNW,339,3.0,13.0,61,0.00,,---,0.00,VWS V14.01,2013-03-21 01:09:00,
2013-03-20 20:39:00,14.6,4.0,30.00,NNW,342,6.0,11.0,62,0.00,,---,0.00,VWS V14.01,2013-03-21 01:39:00,
2013-03-20 21:09:00,13.4,4.5,30.01,North,350,0.0,11.0,67,0.00,,---,0.00,VWS V14.01,2013-03-21 02:09:00,
2013-03-20 21:39:00,12.9,4.0,30.00,North,5,3.0,6.0,67,0.00,,---,0.00,VWS V14.01,2013-03-21 02:39:00,
2013-03-20 22:09:00,13.0,3.1,30.00,NW,320,1.0,11.0,64,0.00,,---,0.00,VWS V14.01,2013-03-21 03:09:00,
2013-03-20 22:39:00,13.6,2.7,30.00,NNW,346,5.0,13.0,61,0.00,,---,0.00,VWS V14.01,2013-03-21 03:39:00,
2013-03-20 23:09:00,13.2,2.6,30.00,North,360,12.0,15.0,62,0.00,,---,0.00,VWS V14.01,2013-03-21 04:09:00,
2013-03-20 23:39:00,12.7,2.5,29.99,North,355,11.0,13.0,63,0.00,,---,0.00,VWS V14.01,2013-03-21 04:39:00,